Regional Weather Roundup
Issued by NWS

Home | Current Version | Previous Version | Graphics & Text | Print | Product List | Glossary On
Versions: 1 2 3 4 5 6 7 8 9 10 11 12 13 14 15 16 17 18 19 20 21 22 23 24 25 26 27 28 29 30 31 32 33 34 35 36 37 38 39 40 41 42 43 44 45 46 47 48 49 50
000
ASUS45 KBOU 011010
RWRCO

WEATHER ROUNDUP FOR COLORADO
NATIONAL WEATHER SERVICE DENVER/BOULDER CO
400 AM MDT WED JUL 01 2015

NOTE: "FAIR" INDICATES FEW OR NO CLOUDS BELOW 12000 FEET WITH NO
SIGNIFICANT WEATHER AND/OR OBSTRUCTIONS TO VISIBILITY.

COZ001>005-013-030-031-011100-
...NORTHWEST COLORADO...

CITY           SKY/WX    TMP DP  RH WIND       PRES   REMARKS
CRAIG          MOCLDY    53  47  79 SW3       30.22R
HAYDEN         MOCLDY    61  46  59 E10       30.23S
MEEKER         MOCLDY    57  47  69 CALM      30.23S
MOUNT WERNER   NOT AVBL
STEAMBOAT SPGS MOCLDY    55  49  80 CALM      30.27S
WALDEN         PTCLDY    50  46  87 E6        30.36S
$$

COZ006>008-011-011100-
...WEST CENTRAL VALLEYS...

CITY           SKY/WX    TMP DP  RH WIND       PRES   REMARKS
GRAND JUNCTION MOCLDY    68  45  43 E3        30.07R
MONTROSE       PTCLDY    66  47  50 SE5       30.15S
EAGLE          PTCLDY    57  48  72 S5        30.28R
RIFLE          MOCLDY    65  44  46 SE6       30.15R
DELTA          PTCLDY    70  49  47 E6        30.11S
NUCLA          PTCLDY    66  45  45 E8        30.19R
$$

COZ017>023-064>068-011100-
...SOUTHWEST COLORADO...

CITY           SKY/WX    TMP DP  RH WIND       PRES   REMARKS
DURANGO        CLOUDY    65  52  62 NE5       30.24R
CORTEZ         CLEAR     65  50  58 VRB3      30.14R
PAGOSA SPRINGS CLOUDY    60  57  92 NE3       30.34S
TELLURIDE      MOCLDY    62  41  46 SE5       30.43F
WOLF CREEK PAS NOT AVBL
$$

COZ009-010-012-014-032>034-037-058>063-011100-
...CENTRAL COLORADO...

CITY           SKY/WX    TMP DP  RH WIND       PRES   REMARKS
ASPEN          CLEAR     54  44  69 CALM      30.32S
BUENA VISTA    PTCLDY    55  47  73 NW5       30.35F
COPPER MTN     PTCLDY    54  37  54 S14G21    30.67S
BERTHOUD PASS  FAIR      45  36  70 NW21      30.69S
COTTONWOOD PAS NOT AVBL
GUNNISON       MOCLDY    59  43  55 N5        30.35F
KREMMLING      MOCLDY    54  46  76 CALM      30.34S
LEADVILLE      CLEAR     46  39  76 E3        30.49F
MONARCH PASS   MOCLDY    52  37  58 SW13      30.76F
SALIDA         PTCLDY    57  52  82 W5        30.39F
SUNLIGHT       PTCLDY    63  37  39 CALM      30.59R
WILKERSON PASS PTCLDY    52  37  58 W7        30.61F
$$

COZ069>075-011100-
...SAN LUIS VALLEY/SANGRE DE CRISTO MOUNTAINS...

CITY           SKY/WX    TMP DP  RH WIND       PRES   REMARKS
ALAMOSA        CLOUDY    61  50  67 S8        30.33S
LA VETA PASS   CLOUDY    54  43  66 MISG      30.51F
SAGUACHE       CLOUDY    55  46  71 CALM      30.37R
$$

COZ035-036-038>040-011100-
...NORTHERN COLORADO FRONT RANGE...

CITY           SKY/WX    TMP DP  RH WIND       PRES   REMARKS
DENVER INTL AP PTCLDY    67  54  63 CALM      30.10F
DMNS CITY PARK   N/A     67  54  62 SE10      30.10S
AURORA         MOCLDY    64  55  71 S7        30.13F
FRONT RANGE AP PTCLDY    64  57  77 MISG      30.12F
ERIE MUNI ARPT PTCLDY    62  55  78 S5        30.07F
BOULDER MUN AP PTCLDY    68  52  56 CALM      30.08F
CENTENNIAL     PTCLDY    63  53  70 S7        30.14F
BROOMFIELD     PTCLDY    64  52  63 W6        30.12F
FORT COLLINS   PTCLDY    64  55  72 N6        30.10R
LONGMONT       PTCLDY    62  54  76 CALM      30.09F
$$

COZ041-046-047-076>085-087-088-011100-
...PIKES PEAK/PALMER DIVIDE AND SOUTHERN FOOTHILLS...

CITY           SKY/WX    TMP DP  RH WIND       PRES   REMARKS
COLO. SPRINGS  MOCLDY    67  51  56 NW5       30.17S
A. F. ACADEMY  PTCLDY    61  49  65 N7        30.18F
ELLICOTT       PTCLDY   N/A N/A N/A NW5       30.14
FALCON         PTCLDY    63  47  57 NW3       30.22S
FORT CARSON    MOCLDY    67  53  59 W3        30.13F
LIMON          PTCLDY    61  55  81 W9        30.10R
MONUMENT HILL  CLEAR     55  50  82 MISG      30.24S
TRINIDAD       CLOUDY    74  48  39 NW7       30.15S
$$

COZ042>045-048>051-090-091-011100-
...NORTHEAST COLORADO...

CITY           SKY/WX    TMP DP  RH WIND       PRES   REMARKS
GREELEY ARPT   PTCLDY    63  57  82 NW5       30.07S
AKRON          PTCLDY    66  54  65 W14       30.02R
BURLINGTON     MOCLDY    70  55  59 N7        30.00R
WRAY           CLOUDY    68  55  61 SW8       29.94R
STERLING       PTCLDY    64  55  72 NW12G17     N/A
HOLYOKE        CLOUDY    75  54  46 NW13      29.92R
FORT MORGAN    PTCLDY    64  55  74 SW7       30.03F
$$

COZ086-089-092>099-011100-
...SOUTHEAST COLORADO...

CITY           SKY/WX    TMP DP  RH WIND       PRES   REMARKS
PUEBLO         PTCLDY    73  53  49 S7        30.05F
LA JUNTA       CLOUDY    70  54  56 NW7       30.00F
LAMAR          CLOUDY    68  57  68 CALM      29.94F
SPRINGFIELD      N/A     69  49  48 SW9       30.01F
$$



USA.gov is the U.S. government's official web portal to all federal, state and local government web resources and services.